| time (UTC) | temp F | wind direction | speed MPH | gust MPH | rain 1hr in | rain 24hr in | rain mn in | humidity % | barometer mb |
| 20260502181504 | 74 | 291 | 1.0 | 4.0 | 0.00 | 0.00 | 0.00 | 56 | 1014.3 |
| 20260502181003 | 74 | 291 | 1.0 | 4.0 | 0.00 | 0.00 | 0.00 | 55 | 1014.3 |
| 20260502180505 | 74 | 286 | 2.0 | 4.0 | 0.00 | 0.00 | 0.00 | 55 | 1014.2 |
| 20260502170505 | 78 | 198 | 3.0 | 7.0 | 0.00 | 0.00 | 0.00 | 49 | 1014.5 |
| 20260502164006 | 78 | 179 | 2.0 | 6.0 | 0.00 | 0.00 | 0.00 | 50 | 1014.8 |
| 20260502163506 | 78 | 163 | 2.0 | 5.0 | 0.00 | 0.00 | 0.00 | 50 | 1014.8 |
| 20260502163217 | 78 | 150 | 2.0 | 6.0 | 0.00 | 0.00 | 0.00 | 51 | 1014.8 |
| 20260502162510 | 77 | 163 | 2.0 | 10.0 | 0.00 | 0.00 | 0.00 | 50 | 1015.0 |
| 20260502162003 | 77 | 164 | 2.0 | 7.0 | 0.00 | 0.00 | 0.00 | 51 | 1015.0 |
| 20260502161716 | 77 | 161 | 3.0 | 7.0 | 0.00 | 0.00 | 0.00 | 51 | 1015.1 |
| 20260502161224 | 77 | 166 | 3.0 | 10.0 | 0.00 | 0.00 | 0.00 | 52 | 1015.1 |
| 20260502160503 | 77 | 154 | 4.0 | 10.0 | 0.00 | 0.00 | 0.00 | 50 | 1015.2 |
| 20260502152217 | 77 | 228 | 3.0 | 9.0 | 0.00 | 0.00 | 0.00 | 49 | 1015.6 |
| 20260502151504 | 77 | 244 | 3.0 | 10.0 | 0.00 | 0.00 | 0.00 | 49 | 1015.6 |
| 20260502151005 | 78 | 226 | 3.0 | 10.0 | 0.00 | 0.00 | 0.00 | 48 | 1015.7 |
| 20260502150503 | 78 | 193 | 3.0 | 9.0 | 0.00 | 0.00 | 0.00 | 48 | 1015.8 |
| 20260502130503 | 77 | 244 | 6.0 | 14.0 | 0.00 | 0.00 | 0.00 | 48 | 1017.1 |
| 20260502123505 | 77 | 210 | 6.0 | 14.0 | 0.00 | 0.00 | 0.00 | 48 | 1017.3 |
| 20260502123006 | 77 | 223 | 5.0 | 14.0 | 0.00 | 0.00 | 0.00 | 48 | 1017.4 |
| 20260502122503 | 77 | 191 | 5.0 | 12.0 | 0.00 | 0.00 | 0.00 | 48 | 1017.4 |
| 20260502122003 | 77 | 183 | 4.0 | 11.0 | 0.00 | 0.00 | 0.00 | 48 | 1017.4 |
| 20260502121507 | 77 | 172 | 5.0 | 13.0 | 0.00 | 0.00 | 0.00 | 48 | 1017.4 |
| 20260502121007 | 77 | 168 | 7.0 | 15.0 | 0.00 | 0.00 | 0.00 | 47 | 1017.6 |
| 20260502120503 | 78 | 170 | 5.0 | 15.0 | 0.00 | 0.00 | 0.00 | 46 | 1017.6 |
| 20260502115505 | 77 | 231 | 5.0 | 14.0 | 0.00 | 0.00 | 0.00 | 47 | 1017.6 |
| 20260502115004 | 77 | 245 | 6.0 | 14.0 | 0.00 | 0.00 | 0.00 | 47 | 1017.6 |
| 20260502114503 | 77 | 206 | 5.0 | 13.0 | 0.00 | 0.00 | 0.00 | 48 | 1017.7 |
| 20260502114003 | 77 | 186 | 6.0 | 13.0 | 0.00 | 0.00 | 0.00 | 47 | 1017.7 |
| 20260502113503 | 78 | 201 | 6.0 | 13.0 | 0.00 | 0.00 | 0.00 | 46 | 1017.8 |
| 20260502113005 | 78 | 208 | 6.0 | 12.0 | 0.00 | 0.00 | 0.00 | 46 | 1017.7 |
| 20260502112504 | 77 | 188 | 6.0 | 12.0 | 0.00 | 0.00 | 0.00 | 46 | 1017.8 |
| 20260502112004 | 77 | 176 | 6.0 | 13.0 | 0.00 | 0.00 | 0.00 | 47 | 1017.8 |
| 20260502111717 | 77 | 172 | 6.0 | 13.0 | 0.00 | 0.00 | 0.00 | 46 | 1017.8 |
| 20260502111220 | 77 | 179 | 6.0 | 13.0 | 0.00 | 0.00 | 0.00 | 46 | 1017.9 |
| 20260502110504 | 77 | 193 | 5.0 | 13.0 | 0.00 | 0.00 | 0.00 | 46 | 1017.8 |
| 20260502110218 | 77 | 201 | 5.0 | 11.0 | 0.00 | 0.00 | 0.00 | 46 | 1017.9 |
| 20260502105504 | 77 | 194 | 5.0 | 15.0 | 0.00 | 0.00 | 0.00 | 46 | 1017.8 |
| 20260502105006 | 76 | 167 | 6.0 | 15.0 | 0.00 | 0.00 | 0.00 | 46 | 1017.9 |
| 20260502104503 | 77 | 173 | 6.0 | 13.0 | 0.00 | 0.00 | 0.00 | 46 | 1018.0 |
| 20260502104004 | 77 | 173 | 6.0 | 12.0 | 0.00 | 0.00 | 0.00 | 44 | 1018.1 |
| 20260502103504 | 77 | 168 | 6.0 | 12.0 | 0.00 | 0.00 | 0.00 | 44 | 1018.1 |
| 20260502103005 | 76 | 183 | 6.0 | 17.0 | 0.00 | 0.00 | 0.00 | 43 | 1018.2 |
| 20260502102503 | 76 | 188 | 5.0 | 17.0 | 0.00 | 0.00 | 0.00 | 42 | 1018.2 |
| 20260502102008 | 76 | 178 | 4.0 | 11.0 | 0.00 | 0.00 | 0.00 | 42 | 1018.2 |
| 20260502101505 | 76 | 169 | 4.0 | 11.0 | 0.00 | 0.00 | 0.00 | 42 | 1018.2 |
| 20260502101009 | 75 | 184 | 4.0 | 9.0 | 0.00 | 0.00 | 0.00 | 42 | 1018.3 |
| 20260502100720 | 75 | 210 | 4.0 | 11.0 | 0.00 | 0.00 | 0.00 | 41 | 1018.2 |
| 20260502091503 | 72 | 179 | 3.0 | 9.0 | 0.00 | 0.00 | 0.00 | 46 | 1018.5 |
| 20260502091003 | 71 | 183 | 3.0 | 8.0 | 0.00 | 0.00 | 0.00 | 46 | 1018.5 |
| 20260502090504 | 70 | 167 | 5.0 | 11.0 | 0.00 | 0.00 | 0.00 | 46 | 1018.5 |
| 20260502071504 | 64 | 163 | 4.0 | 7.0 | 0.00 | 0.00 | 0.00 | 54 | 1018.8 |
| 20260502071003 | 64 | 154 | 4.0 | 9.0 | 0.00 | 0.00 | 0.00 | 55 | 1019.0 |
| 20260502070503 | 63 | 158 | 4.0 | 9.0 | 0.00 | 0.00 | 0.00 | 56 | 1018.9 |
| 20260502070218 | 63 | 160 | 5.0 | 9.0 | 0.00 | 0.00 | 0.00 | 56 | 1019.0 |
| 20260502065719 | 62 | 157 | 5.0 | 8.0 | 0.00 | 0.00 | 0.00 | 57 | 1018.9 |
| 20260502065007 | 61 | 154 | 6.0 | 11.0 | 0.00 | 0.00 | 0.00 | 58 | 1018.9 |
| 20260502064508 | 61 | 156 | 5.0 | 11.0 | 0.00 | 0.00 | 0.00 | 59 | 1019.0 |
| 20260502064004 | 60 | 156 | 5.0 | 11.0 | 0.00 | 0.00 | 0.00 | 60 | 1019.1 |
| 20260502063719 | 60 | 156 | 5.0 | 11.0 | 0.00 | 0.00 | 0.00 | 60 | 1019.0 |
| 20260502063005 | 59 | 160 | 5.0 | 10.0 | 0.00 | 0.00 | 0.00 | 62 | 1019.0 |
| 20260502062504 | 58 | 162 | 5.0 | 9.0 | 0.00 | 0.00 | 0.00 | 63 | 1019.0 |
| 20260502062005 | 58 | 160 | 4.0 | 9.0 | 0.00 | 0.00 | 0.00 | 64 | 1019.1 |
| 20260502061717 | 57 | 159 | 5.0 | 9.0 | 0.00 | 0.00 | 0.00 | 64 | 1019.0 |
| 20260502061005 | 56 | 150 | 4.0 | 8.0 | 0.00 | 0.00 | 0.00 | 66 | 1019.0 |
| 20260502060504 | 55 | 156 | 4.0 | 8.0 | 0.00 | 0.00 | 0.00 | 68 | 1019.0 |
| 20260502060003 | 55 | 151 | 3.0 | 7.0 | 0.00 | 0.00 | 0.00 | 68 | 1018.9 |
| 20260502055503 | 54 | 144 | 3.0 | 7.0 | 0.00 | 0.00 | 0.00 | 69 | 1019.0 |
| 20260502055220 | 54 | 143 | 3.0 | 7.0 | 0.00 | 0.00 | 0.00 | 70 | 1018.9 |
| 20260502054504 | 53 | 140 | 3.0 | 7.0 | 0.00 | 0.00 | 0.00 | 71 | 1018.9 |
| 20260502054005 | 52 | 139 | 3.0 | 7.0 | 0.00 | 0.00 | 0.00 | 72 | 1019.1 |
| 20260502053504 | 52 | 143 | 3.0 | 6.0 | 0.00 | 0.00 | 0.00 | 73 | 1019.0 |
| 20260502053006 | 51 | 151 | 2.0 | 6.0 | 0.00 | 0.00 | 0.00 | 73 | 1019.0 |
| 20260502052506 | 51 | 153 | 2.0 | 5.0 | 0.00 | 0.00 | 0.00 | 73 | 1019.0 |
| 20260502052005 | 50 | 156 | 2.0 | 5.0 | 0.00 | 0.00 | 0.00 | 73 | 1019.1 |
| 20260502051507 | 50 | 157 | 2.0 | 4.0 | 0.00 | 0.00 | 0.00 | 73 | 1019.1 |
| 20260502051219 | 50 | 156 | 1.0 | 3.0 | 0.00 | 0.00 | 0.00 | 73 | 1019.1 |
| 20260502050503 | 50 | 156 | 1.0 | 3.0 | 0.00 | 0.00 | 0.00 | 73 | 1019.1 |
| 20260502050005 | 50 | 156 | 1.0 | 2.0 | 0.00 | 0.00 | 0.00 | 73 | 1019.2 |
| 20260502045503 | 49 | 156 | 1.0 | 3.0 | 0.00 | 0.00 | 0.00 | 74 | 1019.2 |
| 20260502045006 | 49 | 156 | 2.0 | 3.0 | 0.00 | 0.00 | 0.00 | 74 | 1019.2 |
| 20260502044503 | 49 | 156 | 1.0 | 3.0 | 0.00 | 0.00 | 0.00 | 73 | 1019.1 |
| 20260502044004 | 49 | 156 | 1.0 | 2.0 | 0.00 | 0.00 | 0.00 | 73 | 1019.0 |
| 20260502043503 | 49 | 156 | 1.0 | 2.0 | 0.00 | 0.00 | 0.00 | 73 | 1019.0 |
| 20260502043005 | 49 | 156 | 1.0 | 2.0 | 0.00 | 0.00 | 0.00 | 72 | 1019.1 |
| 20260502042505 | 49 | 156 | 1.0 | 2.0 | 0.00 | 0.00 | 0.00 | 72 | 1019.1 |
| 20260502042003 | 50 | 156 | 1.0 | 3.0 | 0.00 | 0.00 | 0.00 | 72 | 1019.2 |
| 20260502041503 | 50 | 156 | 2.0 | 3.0 | 0.00 | 0.00 | 0.00 | 72 | 1019.1 |
| 20260502041005 | 50 | 148 | 2.0 | 4.0 | 0.00 | 0.00 | 0.00 | 71 | 1019.2 |
| 20260502040504 | 50 | 138 | 2.0 | 4.0 | 0.00 | 0.00 | 0.00 | 71 | 1019.3 |
| 20260502040003 | 50 | 135 | 2.0 | 4.0 | 0.00 | 0.00 | 0.00 | 71 | 1019.3 |
| 20260502035503 | 50 | 135 | 2.0 | 4.0 | 0.00 | 0.00 | 0.00 | 71 | 1019.3 |
| 20260502035005 | 50 | 135 | 1.0 | 3.0 | 0.00 | 0.00 | 0.00 | 71 | 1019.3 |
| 20260502034722 | 50 | 135 | 1.0 | 3.0 | 0.00 | 0.00 | 0.00 | 71 | 1019.4 |
| 20260502034010 | 50 | 0 | 0.0 | 0.0 | 0.00 | 0.00 | 0.00 | 70 | 1019.3 |
| 20260502033503 | 50 | 0 | 0.0 | 0.0 | 0.00 | 0.00 | 0.00 | 70 | 1019.4 |
| 20260502033005 | 50 | 0 | 0.0 | 0.0 | 0.00 | 0.00 | 0.00 | 70 | 1019.5 |
| 20260502032504 | 50 | 0 | 0.0 | 0.0 | 0.00 | 0.00 | 0.00 | 69 | 1019.4 |
| 20260502032005 | 50 | 0 | 0.0 | 0.0 | 0.00 | 0.00 | 0.00 | 69 | 1019.4 |
| 20260502031720 | 50 | 0 | 0.0 | 0.0 | 0.00 | 0.00 | 0.00 | 69 | 1019.5 |
| 20260502031005 | 51 | 0 | 0.0 | 0.0 | 0.00 | 0.00 | 0.00 | 68 | 1019.4 |
| 20260502030718 | 51 | 0 | 0.0 | 0.0 | 0.00 | 0.00 | 0.00 | 68 | 1019.5 |
| 20260502030003 | 51 | 135 | 1.0 | 2.0 | 0.00 | 0.00 | 0.00 | 68 | 1019.6 |
| 20260502025504 | 51 | 135 | 1.0 | 2.0 | 0.00 | 0.00 | 0.00 | 68 | 1019.7 |
| 20260502025006 | 51 | 135 | 1.0 | 3.0 | 0.00 | 0.00 | 0.00 | 67 | 1019.6 |
| 20260502024721 | 51 | 135 | 1.0 | 3.0 | 0.00 | 0.00 | 0.00 | 67 | 1019.6 |
| 20260502024004 | 52 | 135 | 1.0 | 2.0 | 0.00 | 0.00 | 0.00 | 67 | 1019.6 |
| 20260502023503 | 52 | 135 | 1.0 | 2.0 | 0.00 | 0.00 | 0.00 | 66 | 1019.6 |
| 20260502023003 | 52 | 135 | 2.0 | 3.0 | 0.00 | 0.00 | 0.00 | 66 | 1019.6 |
| 20260502022504 | 52 | 135 | 2.0 | 3.0 | 0.00 | 0.00 | 0.00 | 66 | 1019.7 |
| 20260502022006 | 52 | 135 | 2.0 | 3.0 | 0.00 | 0.00 | 0.00 | 66 | 1019.7 |
| 20260502021717 | 52 | 135 | 2.0 | 3.0 | 0.00 | 0.00 | 0.00 | 66 | 1019.7 |
| 20260502021006 | 52 | 135 | 2.0 | 3.0 | 0.00 | 0.00 | 0.00 | 65 | 1019.7 |
| 20260502020719 | 52 | 135 | 2.0 | 3.0 | 0.00 | 0.00 | 0.00 | 65 | 1019.7 |
| 20260502020003 | 52 | 135 | 2.0 | 3.0 | 0.00 | 0.00 | 0.00 | 65 | 1019.8 |
| 20260502015505 | 52 | 135 | 1.0 | 3.0 | 0.00 | 0.00 | 0.00 | 65 | 1019.9 |
| 20260502015218 | 52 | 135 | 1.0 | 3.0 | 0.00 | 0.00 | 0.00 | 65 | 1019.8 |
| 20260502014503 | 52 | 135 | 1.0 | 3.0 | 0.00 | 0.00 | 0.00 | 64 | 1019.9 |
| 20260502014218 | 53 | 135 | 1.0 | 3.0 | 0.00 | 0.00 | 0.00 | 64 | 1020.0 |
| 20260502013503 | 53 | 135 | 2.0 | 3.0 | 0.00 | 0.00 | 0.00 | 64 | 1020.0 |
| 20260502013008 | 53 | 135 | 1.0 | 3.0 | 0.00 | 0.00 | 0.00 | 64 | 1020.0 |
| 20260502012503 | 53 | 135 | 1.0 | 3.0 | 0.00 | 0.00 | 0.00 | 64 | 1020.1 |
| 20260502012003 | 53 | 135 | 1.0 | 3.0 | 0.00 | 0.00 | 0.00 | 63 | 1020.2 |
| 20260502011719 | 53 | 135 | 1.0 | 3.0 | 0.00 | 0.00 | 0.00 | 63 | 1020.2 |
| 20260502011003 | 54 | 135 | 0.0 | 3.0 | 0.00 | 0.00 | 0.00 | 63 | 1020.3 |
| 20260502010505 | 54 | 135 | 0.0 | 2.0 | 0.00 | 0.00 | 0.00 | 62 | 1020.3 |
| 20260502010003 | 54 | 135 | 0.0 | 2.0 | 0.00 | 0.00 | 0.00 | 62 | 1020.5 |
| 20260502005719 | 54 | 135 | 0.0 | 2.0 | 0.00 | 0.00 | 0.00 | 61 | 1020.5 |
| 20260502005003 | 54 | 135 | 1.0 | 3.0 | 0.00 | 0.00 | 0.00 | 61 | 1020.5 |
| 20260502004503 | 54 | 135 | 1.0 | 2.0 | 0.00 | 0.00 | 0.00 | 61 | 1020.6 |
| 20260502004006 | 54 | 135 | 0.0 | 2.0 | 0.00 | 0.00 | 0.00 | 61 | 1020.6 |
| 20260502003503 | 54 | 140 | 1.0 | 4.0 | 0.00 | 0.00 | 0.00 | 60 | 1020.7 |
| 20260502003004 | 54 | 144 | 1.0 | 4.0 | 0.00 | 0.00 | 0.00 | 61 | 1020.6 |
| 20260502002506 | 54 | 147 | 2.0 | 3.0 | 0.00 | 0.00 | 0.00 | 61 | 1020.6 |
| 20260502002003 | 54 | 147 | 1.0 | 3.0 | 0.00 | 0.00 | 0.00 | 61 | 1020.7 |
| 20260502001716 | 54 | 147 | 0.0 | 2.0 | 0.00 | 0.00 | 0.00 | 61 | 1020.8 |
| 20260502001006 | 54 | 147 | 0.0 | 3.0 | 0.00 | 0.00 | 0.00 | 61 | 1020.9 |
| 20260502000503 | 55 | 147 | 0.0 | 3.0 | 0.00 | 0.00 | 0.00 | 61 | 1020.9 |
| 20260502000007 | 55 | 147 | 0.0 | 2.0 | 0.00 | 0.00 | 0.00 | 60 | 1020.8 |
| 20260501235503 | 55 | 147 | 0.0 | 2.0 | 0.00 | 0.00 | 0.00 | 60 | 1020.8 |
| 20260501235006 | 55 | 147 | 0.0 | 3.0 | 0.00 | 0.00 | 0.00 | 60 | 1020.9 |
| 20260501234716 | 55 | 147 | 0.0 | 3.0 | 0.00 | 0.00 | 0.00 | 60 | 1020.9 |
| 20260501234005 | 55 | 140 | 1.0 | 3.0 | 0.00 | 0.00 | 0.00 | 59 | 1021.0 |
| 20260501233504 | 55 | 140 | 1.0 | 3.0 | 0.00 | 0.00 | 0.00 | 59 | 1020.9 |
| 20260501233004 | 56 | 140 | 0.0 | 3.0 | 0.00 | 0.00 | 0.00 | 59 | 1021.0 |
| 20260501232505 | 56 | 0 | 0.0 | 0.0 | 0.00 | 0.00 | 0.00 | 59 | 1021.0 |
| 20260501232003 | 56 | 156 | 0.0 | 2.0 | 0.00 | 0.00 | 0.00 | 59 | 1021.0 |
| 20260501231504 | 56 | 156 | 1.0 | 5.0 | 0.00 | 0.00 | 0.00 | 59 | 1021.0 |
| 20260501231005 | 55 | 156 | 1.0 | 5.0 | 0.00 | 0.00 | 0.00 | 59 | 1021.1 |
| 20260501230718 | 55 | 156 | 1.0 | 3.0 | 0.00 | 0.00 | 0.00 | 59 | 1021.0 |
| 20260501230003 | 55 | 156 | 1.0 | 5.0 | 0.00 | 0.00 | 0.00 | 59 | 1021.1 |
| 20260501225503 | 55 | 157 | 1.0 | 5.0 | 0.00 | 0.00 | 0.00 | 59 | 1021.0 |
| 20260501225004 | 55 | 158 | 1.0 | 5.0 | 0.00 | 0.00 | 0.00 | 60 | 1021.2 |
| 20260501224718 | 55 | 158 | 1.0 | 2.0 | 0.00 | 0.00 | 0.00 | 60 | 1021.2 |
| 20260501224003 | 55 | 0 | 0.0 | 0.0 | 0.00 | 0.00 | 0.00 | 62 | 1021.2 |
| 20260501223507 | 55 | 0 | 0.0 | 0.0 | 0.00 | 0.00 | 0.00 | 64 | 1021.3 |
| 20260501223003 | 55 | 0 | 0.0 | 0.0 | 0.00 | 0.00 | 0.00 | 64 | 1021.3 |
| 20260501222508 | 55 | 0 | 0.0 | 0.0 | 0.00 | 0.00 | 0.00 | 63 | 1021.3 |
| 20260501222003 | 55 | 0 | 0.0 | 0.0 | 0.00 | 0.00 | 0.00 | 63 | 1021.3 |
| 20260501221503 | 55 | 0 | 0.0 | 0.0 | 0.00 | 0.00 | 0.00 | 63 | 1021.3 |
| 20260501221005 | 56 | 0 | 0.0 | 0.0 | 0.00 | 0.00 | 0.00 | 62 | 1021.4 |
| 20260501220505 | 56 | 0 | 0.0 | 0.0 | 0.00 | 0.00 | 0.00 | 62 | 1021.5 |
| 20260501220003 | 56 | 0 | 0.0 | 0.0 | 0.00 | 0.00 | 0.00 | 62 | 1021.4 |
| 20260501215505 | 56 | 0 | 0.0 | 0.0 | 0.00 | 0.00 | 0.00 | 62 | 1021.5 |
| 20260501215003 | 56 | 0 | 0.0 | 0.0 | 0.00 | 0.00 | 0.00 | 62 | 1021.5 |
| 20260501214507 | 56 | 0 | 0.0 | 0.0 | 0.00 | 0.00 | 0.00 | 61 | 1021.4 |
| 20260501214006 | 57 | 0 | 0.0 | 0.0 | 0.00 | 0.00 | 0.00 | 61 | 1021.6 |
| 20260501213513 | 57 | 0 | 0.0 | 0.0 | 0.00 | 0.00 | 0.00 | 61 | 1021.6 |
| 20260501213217 | 57 | 0 | 0.0 | 0.0 | 0.00 | 0.00 | 0.00 | 61 | 1021.6 |
| 20260501212503 | 57 | 0 | 0.0 | 0.0 | 0.00 | 0.00 | 0.00 | 60 | 1021.6 |
| 20260501212003 | 57 | 0 | 0.0 | 0.0 | 0.00 | 0.00 | 0.00 | 61 | 1021.6 |
| 20260501211503 | 57 | 0 | 0.0 | 0.0 | 0.00 | 0.00 | 0.00 | 60 | 1021.7 |
| 20260501211216 | 58 | 0 | 0.0 | 0.0 | 0.00 | 0.00 | 0.00 | 60 | 1021.7 |
| 20260501210510 | 58 | 0 | 0.0 | 0.0 | 0.00 | 0.00 | 0.00 | 59 | 1021.7 |
| 20260501210005 | 58 | 0 | 0.0 | 0.0 | 0.00 | 0.00 | 0.00 | 59 | 1021.7 |
| 20260501205505 | 58 | 0 | 0.0 | 0.0 | 0.00 | 0.00 | 0.00 | 59 | 1021.8 |
| 20260501205003 | 59 | 0 | 0.0 | 0.0 | 0.00 | 0.00 | 0.00 | 58 | 1021.8 |
| 20260501204506 | 59 | 0 | 0.0 | 0.0 | 0.00 | 0.00 | 0.00 | 57 | 1021.8 |
| 20260501204005 | 60 | 0 | 0.0 | 0.0 | 0.00 | 0.00 | 0.00 | 57 | 1021.9 |
| 20260501203503 | 60 | 0 | 0.0 | 0.0 | 0.00 | 0.00 | 0.00 | 56 | 1021.9 |
| 20260501203006 | 60 | 0 | 0.0 | 0.0 | 0.00 | 0.00 | 0.00 | 55 | 1021.9 |
| 20260501202503 | 61 | 0 | 0.0 | 0.0 | 0.00 | 0.00 | 0.00 | 54 | 1021.9 |
| 20260501202003 | 61 | 0 | 0.0 | 0.0 | 0.00 | 0.00 | 0.00 | 54 | 1022.0 |
| 20260501201505 | 62 | 0 | 0.0 | 0.0 | 0.00 | 0.00 | 0.00 | 53 | 1022.0 |
| 20260501201218 | 62 | 0 | 0.0 | 0.0 | 0.00 | 0.00 | 0.00 | 53 | 1022.1 |
| 20260501200717 | 62 | 0 | 0.0 | 0.0 | 0.00 | 0.00 | 0.00 | 51 | 1022.0 |
| 20260501200005 | 63 | 0 | 0.0 | 0.0 | 0.00 | 0.00 | 0.00 | 50 | 1022.0 |
| 20260501195503 | 64 | 0 | 0.0 | 0.0 | 0.00 | 0.00 | 0.00 | 49 | 1022.0 |
| 20260501195218 | 64 | 0 | 0.0 | 0.0 | 0.00 | 0.00 | 0.00 | 48 | 1022.0 |
| 20260501194719 | 64 | 0 | 0.0 | 0.0 | 0.00 | 0.00 | 0.00 | 47 | 1022.0 |
| 20260501194006 | 65 | 0 | 0.0 | 0.0 | 0.00 | 0.00 | 0.00 | 46 | 1021.8 |
| 20260501193503 | 65 | 0 | 0.0 | 0.0 | 0.00 | 0.00 | 0.00 | 46 | 1021.9 |
| 20260501193218 | 66 | 0 | 0.0 | 0.0 | 0.00 | 0.00 | 0.00 | 46 | 1021.8 |
| 20260501192503 | 67 | 0 | 0.0 | 0.0 | 0.00 | 0.00 | 0.00 | 43 | 1021.8 |
| 20260501192008 | 67 | 0 | 0.0 | 0.0 | 0.00 | 0.00 | 0.00 | 42 | 1021.8 |
| 20260501191503 | 68 | 0 | 0.0 | 0.0 | 0.00 | 0.00 | 0.00 | 42 | 1021.8 |
| 20260501191003 | 69 | 0 | 0.0 | 0.0 | 0.00 | 0.00 | 0.00 | 40 | 1021.8 |
| 20260501190503 | 69 | 0 | 0.0 | 0.0 | 0.00 | 0.00 | 0.00 | 39 | 1021.8 |
| 20260501190003 | 70 | 0 | 0.0 | 0.0 | 0.00 | 0.00 | 0.00 | 38 | 1021.9 |
| 20260501185505 | 70 | 0 | 0.0 | 0.0 | 0.00 | 0.00 | 0.00 | 38 | 1021.8 |
| 20260501185006 | 70 | 158 | 0.0 | 2.0 | 0.00 | 0.00 | 0.00 | 37 | 1021.8 |
| 20260501184507 | 71 | 158 | 1.0 | 3.0 | 0.00 | 0.00 | 0.00 | 36 | 1021.9 |
| 20260501184004 | 72 | 158 | 2.0 | 5.0 | 0.00 | 0.00 | 0.00 | 35 | 1021.8 |
| 20260501183503 | 72 | 158 | 2.0 | 5.0 | 0.00 | 0.00 | 0.00 | 35 | 1021.9 |
| 20260501183219 | 72 | 157 | 2.0 | 5.0 | 0.00 | 0.00 | 0.00 | 34 | 1021.8 |
| 20260501182504 | 73 | 159 | 2.0 | 5.0 | 0.00 | 0.00 | 0.00 | 33 | 1021.8 |
| 20260501182004 | 73 | 159 | 2.0 | 6.0 | 0.00 | 0.00 | 0.00 | 33 | 1021.8 |